Showing default

AAC-IO1, 68498

Orbit data source: Space-Track

AAC-IO1, 68498 is a UK payload satellite in SSO that was launched on Mon, 30 Mar 2026 UTC via an FALCON 9 launch vehicle from the Air Force Western Test Range (AFWTR). Payload-class satellites include a variety of spacecraft equipped with specific instruments for various scientific and technological missions. These include communications satellites like Starlink; space stations such as the ISS; scientific satellites like the Hubble; Earth observation satellites from companies like Planet Labs, Umbra, and HawkEye 360; GPS; miniature CubeSats for education and research; and military/defense satellites.

Loading next visibility...
Identifier
68498, 2026-067CL
Orbit
SSO
Country
Flag of UKUK
Related business
None
Manufacturer
AAC ClydeSpace
Mission
Operational spacecraft
Bus & Motor
CUBESAT 4U, Unknown motor
Mass
~8 kg wet, ~8 kg dry
Launch date (UTC)
2026-03-30 (2 months ago)
Launch vehicle
FALCON 9
Launch site
Air Force Western Test Range (AFWTR)
Object type
Payload
Rocket body
Debris
Shape & HBR
Unknown shape, 1.1 m
Radar Cross Section
Medium (>0.1 m² and <1 m²)

Expand to show TLE details & history
Last TLE update: 2 days ago

TLE from 2 days ago
0 AAC-IO1
1 68498U 26067CL  26155.25556695  .00001650  00000-0  17057-3 0  9993
2 68498  97.7546 113.6282 0004158  98.6358 261.5331 14.91442830  9797
Epoch: 2026-06-04T06:08Z
TLE epoch observation values (Epoch: 2026-06-04T06:08:00.984Z)
Latitude
-0.0001°
Longitude
128.92166°
Altitude
596.905 km
Speed
7.561 km/s
True Right ascension
07h 34m 30s
True Declination
0° 00' 00"
Sunlit
Object was in daylight at epoch
Visualization orbit readout
Latitude
Unknown
Longitude
Unknown
Altitude
Unknown
Speed
Unknown
Apparent Right ascension
Unknown
Apparent Declination
Unknown
Sunlit
N/A
Visualization observer readout
Local Sidereal Time
02:37:03
Azimuth
Unknown
Elevation
Unknown
Doppler factor
Unknown
Orbital elements
Apogee altitude
593.352 km
Perigee altitude
587.557 km
Semi-major axis
6,968.592 km
Eccentricity
0.00042
Inclination
97.7546°
RAAN
113.6282°
Arg. of periapsis
98.6358°
True anomaly
261.48598°
Mean anomaly
261.5331°
Eccentric anomaly
261.50954°
Mean motion
3.731 °/min
Orbital period
96.49 mins
BSTAR
0.00017057
Loading maneuver chart data...
Computing Atmospheric mass density...
Loading historical data...
Loading historical data...
Loading historical data...
Loading historical data...
Loading historical data...
Loading historical data...
Loading historical data...

Documentation

Showing up to 5 results
|